Theta_e
331 330 329 330 331 335 336 332 333 336 336 337 338 337 338 337 336 335 341 350 348 348 347 344 344 344 345 345 346 347 347 348 347 347 346 344 344 343 342 344 343 339 336
334 331 330 331 331 334 335 332 333 335 336 337 337 338 339 335 334 333 337 342 345 345 346 346 344 344 344 344 345 347 347 346 347 346 345 345 344 343 343 344 343 341 341
335 333 331 331 332 333 334 333 332 335 335 339 337 339 338 335 335 335 337 337 340 344 345 345 345 344 344 344 344 345 345 345 345 345 345 344 343 343 343 343 342 341 339
336 335 334 332 334 334 334 333 332 333 336 335 337 335 335 334 335 335 335 336 335 337 343 345 344 344 344 344 344 344 346 344 344 344 344 343 344 344 343 344 343 341 338
340 338 335 336 334 334 334 334 332 331 330 330 335 333 335 334 334 338 335 335 335 335 334 340 343 343 344 343 344 344 346 345 343 344 345 345 345 344 343 343 343 342 342
343 338 339 336 336 335 332 333 330 332 330 333 333 331 336 335 335 334 333 335 332 334 334 336 336 336 341 342 343 346 344 346 344 345 345 345 344 343 343 343 342 342 342
345 341 338 339 340 335 335 332 330 328 330 332 329 327 333 333 332 333 333 332 331 333 332 332 333 333 334 341 341 343 344 344 343 344 344 342 343 343 342 342 342 342 341
347 343 341 340 338 336 333 331 331 327 330 330 324 324 320 323 329 332 331 330 330 331 332 333 332 331 332 334 334 341 344 344 343 345 343 341 342 342 342 342 342 342 340
347 345 343 340 338 336 334 332 331 328 326 328 329 324 318 316 319 324 325 327 326 328 329 330 331 333 332 330 332 337 341 343 344 343 344 342 342 342 341 341 341 340 337
345 344 344 341 339 337 333 333 334 329 327 324 330 332 327 323 319 317 321 324 325 327 327 328 328 331 330 328 329 336 337 338 341 343 343 343 343 341 341 341 339 337 336
343 343 342 340 338 338 336 335 333 330 329 329 327 325 325 326 324 315 311 316 324 324 327 326 328 330 330 326 325 327 332 335 335 337 339 341 342 341 341 339 338 336 334
338 340 342 342 340 339 338 336 336 332 331 331 329 329 326 320 317 316 313 315 315 319 324 328 326 328 330 328 329 330 330 332 331 331 334 339 341 340 341 340 338 337 337
334 335 338 339 339 339 339 336 333 333 331 329 329 328 324 324 320 319 317 313 313 318 321 323 325 329 331 326 327 330 330 329 328 328 330 332 336 337 338 338 338 336 335
336 337 337 340 340 340 340 336 334 333 332 328 329 323 324 322 323 321 318 316 311 313 319 317 325 326 330 329 328 332 330 328 326 325 326 327 330 332 334 334 334 333 333
338 337 340 340 340 339 337 335 334 330 331 328 326 325 324 326 325 323 321 320 315 309 310 317 320 326 327 326 328 329 328 327 326 323 323 325 326 327 328 328 329 329 329
337 337 339 338 338 337 337 334 330 329 328 326 327 325 325 327 325 324 322 320 319 315 311 317 321 322 327 328 331 328 328 325 323 322 325 323 323 323 324 324 325 325 326
337 338 338 337 337 335 333 329 328 327 327 326 326 327 326 328 324 323 321 320 318 318 313 317 321 325 326 324 326 327 325 325 324 322 324 322 319 319 321 321 322 323 323
339 339 338 337 335 334 332 327 326 328 327 325 327 327 326 331 324 323 320 319 317 319 318 317 321 323 325 326 326 326 325 326 324 322 321 319 317 317 317 318 318 318 317
337 337 334 332 331 330 328 328 328 327 326 327 327 328 326 325 322 321 320 319 320 323 322 323 321 325 325 326 322 322 322 321 323 322 318 316 316 316 316 316 316 315 313
331 328 328 328 328 330 332 332 329 327 326 327 328 328 328 326 324 322 323 322 324 321 321 320 321 321 321 322 321 319 318 320 320 322 320 318 317 316 315 315 316 315 311
325 326 329 329 328 327 327 329 328 327 325 325 325 329 327 327 324 324 325 323 323 323 321 318 318 319 318 318 318 318 316 317 319 320 319 320 320 319 316 316 319 316 311
326 327 329 327 324 321 305 310 322 326 326 324 323 325 323 321 317 317 320 321 323 321 318 319 317 317 318 318 318 317 316 316 312 321 319 318 321 318 318 317 313 310 308
328 329 329 325 319 315 304 307 316 326 323 323 325 325 326 325 321 320 312 314 314 313 318 319 318 317 318 319 318 317 318 316 314 317 319 316 318 318 319 315 309 307 306
328 328 325 322 317 314 305 307 318 326 324 323 325 327 325 322 321 324 323 321 319 319 319 321 319 320 321 321 321 320 317 316 317 317 318 313 316 310 314 313 308 307 305
323 324 324 321 317 316 304 310 317 323 323 322 321 323 323 319 306 309 320 316 317 315 309 310 310 307 306 307 315 318 315 314 312 312 315 314 313 310 310 312 311 306 305
324 326 325 321 314 316 302 306 316 321 320 321 320 316 308 314 303 307 321 319 317 317 316 315 313 307 310 310 309 320 318 314 313 311 313 312 311 311 309 311 313 307 306
Wind_Speed
8 8 5 5 7 6 7 6 6 8 8 10 10 10 8 8 9 4 4 16 14 13 13 13 13 12 11 10 10 11 11 12 12 13 16 16 15 14 14 14 17 14 13
9 9 9 8 7 9 8 8 8 9 9 8 10 9 11 10 6 5 4 7 14 13 12 13 14 14 14 12 11 12 12 12 14 14 14 14 13 12 14 15 16 16 13
11 12 9 10 7 9 10 9 9 8 6 9 12 11 6 5 4 5 5 5 6 12 12 11 13 13 13 14 13 14 14 14 14 15 15 16 14 13 13 17 16 14 12
14 12 9 10 7 6 9 8 9 8 9 9 6 4 5 4 5 5 4 4 5 4 9 14 12 13 12 14 14 16 15 14 14 14 13 15 16 15 14 16 15 15 13
15 13 10 8 11 7 8 8 9 7 5 4 5 5 4 5 6 4 5 5 6 6 5 10 11 12 12 12 14 16 16 15 14 13 13 15 15 15 14 15 14 16 15
16 14 9 9 9 10 6 7 5 5 4 4 4 4 4 4 4 5 5 4 4 6 5 6 6 7 11 12 13 14 16 14 14 13 13 15 15 14 14 15 14 16 17
14 14 10 8 8 10 12 7 5 6 4 4 3 1 1 4 6 5 4 4 5 5 5 4 4 4 3 12 12 13 15 16 15 14 13 15 14 15 14 15 14 13 17
13 13 12 9 10 6 6 7 6 4 4 5 4 2 1 4 4 5 4 4 6 3 3 6 6 5 4 3 6 12 14 16 16 15 13 12 13 13 14 15 14 15 22
12 13 11 9 6 6 5 5 6 8 4 3 4 5 1 4 2 2 3 3 3 2 3 4 4 6 6 4 3 9 15 14 16 16 14 15 15 14 14 15 20 21 24
11 11 11 10 8 5 6 6 5 5 5 5 2 3 2 3 2 2 3 2 2 3 5 4 4 5 6 3 4 10 11 12 14 16 17 17 18 18 17 22 22 23 24
8 8 9 7 6 4 5 7 6 6 4 4 3 2 3 2 1 3 3 3 2 2 4 4 5 5 4 5 4 5 4 8 11 13 14 17 18 19 21 24 24 22 23
5 7 8 6 6 5 6 5 6 7 6 4 3 4 3 3 4 3 2 2 2 3 2 2 4 4 5 4 6 9 5 5 12 11 10 16 18 18 22 24 25 24 23
3 5 6 6 4 5 5 6 6 5 5 4 4 3 2 3 3 3 3 1 1 2 1 2 1 5 5 4 9 9 8 8 11 12 11 12 15 17 22 22 25 23 23
6 7 6 6 6 5 4 5 4 5 5 5 6 3 3 2 2 3 4 4 1 2 1 3 2 2 5 5 7 7 5 11 9 10 12 13 15 16 19 22 21 22 20
6 7 7 6 6 5 6 6 5 5 5 5 4 5 3 2 3 3 3 3 5 3 2 1 2 3 3 3 5 5 5 10 9 10 12 14 15 16 18 18 18 16 17
7 7 7 7 7 7 7 7 4 5 6 4 4 6 3 2 2 2 3 3 3 4 2 3 2 4 3 3 4 4 6 9 10 11 14 16 17 18 17 15 14 14 16
7 7 7 7 7 7 7 6 6 6 7 6 5 5 5 3 2 3 3 3 3 3 3 1 2 2 3 4 4 7 6 7 5 13 16 18 17 16 16 15 14 15 14
8 9 8 8 8 8 7 7 6 5 7 7 6 5 6 4 5 4 4 4 3 2 4 5 4 3 5 7 6 9 7 5 5 10 17 17 16 16 15 15 15 12 11
8 8 8 8 8 7 7 7 7 6 7 7 6 6 6 5 5 3 4 4 4 3 3 6 4 3 4 5 8 8 7 7 5 15 14 15 16 15 15 14 12 11 10
9 8 7 7 7 6 5 5 6 5 4 4 5 5 5 6 7 6 6 6 5 5 6 6 6 4 3 5 6 7 6 4 5 5 8 9 11 13 11 10 11 10 11
7 7 8 8 8 7 3 5 4 5 6 6 5 3 3 4 9 8 5 5 8 6 7 6 4 3 4 4 6 3 6 6 5 4 7 6 7 5 4 6 7 10 10
6 8 9 8 8 5 5 8 5 5 5 6 5 5 5 5 7 9 8 11 12 11 8 6 3 6 4 7 6 7 8 7 4 2 7 5 5 5 4 4 8 9 9
9 8 9 9 8 5 6 6 4 4 4 4 5 6 4 3 6 6 9 12 11 9 10 10 11 8 7 7 8 8 7 5 4 2 8 5 3 4 3 4 10 10 9
9 8 8 7 7 4 4 4 7 5 6 5 5 9 8 6 6 8 12 9 7 5 7 6 8 8 8 9 9 7 9 8 7 4 3 3 2 2 2 3 7 9 9
6 6 7 8 7 5 6 7 7 5 6 7 5 6 6 7 7 12 11 10 8 5 7 12 12 13 14 12 10 10 8 10 5 2 1 3 2 3 2 2 3 8 10
6 6 8 7 8 6 7 8 6 4 5 5 6 6 8 8 11 12 11 10 10 6 9 8 8 8 9 10 12 9 10 10 6 3 3 4 3 4 2 3 4 4 4
Wind_Direction
195 199 196 186 189 177 186 199 187 203 215 227 241 243 238 233 228 192 165 176 189 193 189 189 195 196 196 201 191 184 183 191 191 189 178 185 190 186 179 173 161 169 168
198 198 202 201 185 185 186 197 198 204 214 213 230 231 232 215 231 181 178 184 191 198 193 197 202 202 206 207 204 195 189 194 194 192 187 182 181 185 184 183 169 177 182
198 199 199 206 190 188 187 195 208 210 201 211 222 226 254 246 218 193 164 183 192 203 199 204 207 209 208 210 208 206 197 200 202 200 196 188 189 202 201 187 181 188 175
201 197 199 201 192 174 193 191 203 210 216 223 217 212 215 220 203 202 189 186 187 188 209 214 213 218 211 218 215 209 203 202 205 204 196 198 190 197 193 191 189 169 179
201 198 202 192 192 185 190 187 205 201 205 191 197 214 198 188 200 209 234 224 200 191 199 215 209 223 211 220 220 218 202 200 199 200 198 200 203 199 192 194 189 181 192
200 196 194 188 179 202 194 192 175 191 181 182 202 197 193 199 208 211 233 246 216 210 184 187 200 216 213 222 218 221 207 200 191 192 192 191 198 198 194 192 189 187 197
196 192 197 179 173 193 206 182 164 181 208 164 116 339 238 218 228 227 231 231 238 193 192 194 204 193 222 213 210 213 208 203 196 194 194 188 193 194 183 180 171 169 166
184 189 187 178 185 175 178 177 165 156 182 166 148 130 272 319 276 231 208 225 222 178 173 181 201 162 142 163 198 213 207 207 197 194 187 182 180 173 156 155 160 172 154
171 181 181 181 169 174 179 176 169 170 158 193 166 147 169 223 309 346 245 213 205 159 174 194 207 174 153 195 237 218 205 201 202 195 184 179 177 167 156 155 143 149 151
167 161 166 166 182 173 171 177 168 154 134 163 177 199 158 143 156 322 337 269 135 157 211 228 195 162 167 158 219 205 201 200 204 194 182 185 176 164 157 152 151 153 153
152 146 153 156 161 165 186 173 157 153 151 145 147 107 240 207 113 142 244 303 358 280 240 224 191 167 174 145 172 215 130 179 195 188 173 176 169 164 159 158 156 155 157
135 144 146 157 164 169 183 165 163 156 165 150 151 171 187 174 200 149 168 230 197 288 348 350 174 150 165 163 208 207 132 178 166 180 174 172 171 167 164 162 166 162 161
136 154 144 140 144 157 164 151 144 148 145 152 165 206 236 178 147 135 134 208 171 268 93 29 67 122 148 172 209 195 198 195 175 184 168 164 157 164 164 168 155 160 155
141 154 141 139 158 160 163 141 129 143 158 167 194 183 135 164 120 134 161 147 39 283 281 172 71 101 143 177 208 176 172 155 163 160 155 154 151 154 160 150 155 155 160
147 152 147 150 158 162 143 135 135 161 175 185 173 155 140 145 122 144 160 146 153 201 251 243 134 156 183 160 147 142 142 146 152 148 147 141 136 132 141 148 151 154 158
152 149 147 156 147 147 137 135 164 182 160 162 153 149 155 160 138 155 151 170 153 155 163 191 211 141 168 148 154 157 123 117 135 139 144 135 131 135 140 140 144 150 151
135 136 138 140 142 131 143 145 168 163 163 154 154 168 197 153 182 169 140 137 145 131 129 306 114 130 118 126 95 99 97 110 113 138 141 134 136 134 136 136 142 150 155
129 134 139 134 133 136 146 161 168 164 158 169 183 177 206 198 192 168 153 156 152 129 123 113 57 80 83 108 92 101 97 89 104 133 135 135 132 132 136 140 147 153 150
136 137 137 143 142 153 164 171 170 164 177 182 181 190 206 170 185 158 166 164 144 118 98 126 110 60 68 88 85 78 81 71 81 126 119 122 126 134 138 147 148 140 141
128 125 143 153 160 164 157 170 167 170 196 194 180 193 199 181 181 172 168 166 138 113 104 112 109 88 89 83 86 106 93 83 93 87 85 108 127 125 132 134 133 145 150
125 118 100 96 87 82 67 113 151 160 157 160 167 193 114 220 185 181 157 151 129 127 128 120 104 105 114 117 127 109 110 104 73 97 109 107 117 114 102 107 148 152 150
115 107 107 103 99 89 59 63 111 148 150 175 177 111 96 110 107 123 148 145 147 144 141 141 129 141 130 118 124 131 130 129 112 121 110 105 126 123 134 135 146 139 147
109 112 103 97 91 89 62 65 86 124 126 157 169 123 142 140 116 113 93 114 115 126 149 149 159 154 144 145 140 140 141 122 115 118 123 114 107 115 118 133 140 145 156
106 102 95 96 95 77 64 80 85 94 86 86 99 137 146 154 133 109 107 100 98 110 124 131 137 130 128 139 144 141 123 106 102 93 72 111 123 88 97 105 148 160 159
101 106 113 105 102 93 85 88 85 74 75 67 61 99 114 113 117 114 105 103 96 70 50 113 116 126 138 138 133 128 134 136 133 131 112 107 137 105 121 168 186 183 181
112 99 105 104 114 111 92 102 96 94 85 87 67 60 71 111 103 122 121 118 113 119 116 111 106 100 122 136 146 155 153 151 144 122 214 108 132 139 174 218 188 193 210